Wind_Speed
32 32 30 30 31 31 32 33 35 37 39 40 42 41 39 37 35 33 33 35 37 39 40 40 41 41 41 41 40 38 34 29 26 24 25 27 29 31 33 30 26 25 23 20 18 16 13 10 8 7 7 9 12 15 18 21 23 25 25 24 23 22 19
31 32 31 31 32 33 33 34 35 35 36 38 40 41 41 40 39 37 35 34 36 37 38 39 40 41 42 42 40 38 36 33 30 28 28 28 30 33 36 34 30 27 25 22 19 17 14 11 9 8 8 8 9 13 17 20 22 24 24 24 23 22 19
30 31 32 33 33 34 35 36 37 37 37 37 39 40 40 39 39 39 38 37 37 38 38 38 40 41 42 41 40 38 38 35 31 30 29 29 31 35 38 37 32 29 27 24 21 19 16 13 12 10 9 9 9 11 14 18 21 23 24 24 23 22 19
29 31 33 34 35 36 37 38 39 39 39 38 39 38 38 37 37 38 39 40 39 40 40 39 40 41 42 42 40 39 39 37 34 33 32 31 34 35 37 38 35 32 30 25 23 22 18 15 13 11 11 10 11 11 12 14 18 21 23 23 23 21 19
31 32 34 36 37 38 39 40 41 42 41 41 41 39 37 35 36 37 39 41 42 42 42 41 41 42 42 42 42 41 40 40 38 36 34 34 36 35 37 41 38 35 33 28 24 23 20 17 14 12 11 11 11 11 12 13 15 18 20 22 22 21 20
32 34 36 37 38 39 41 42 43 44 44 44 45 44 40 37 37 39 39 41 43 44 44 44 44 44 44 43 42 42 42 42 41 37 34 35 38 37 38 41 39 37 36 31 26 24 22 20 18 15 13 12 12 12 12 13 13 15 18 20 21 21 20
33 35 36 37 39 40 42 44 45 46 46 47 47 48 47 44 41 41 41 41 43 44 45 47 47 46 46 45 43 43 45 45 44 40 37 37 39 39 39 40 39 38 37 35 30 26 24 23 21 18 16 15 15 14 14 13 13 14 16 18 20 20 20
36 37 38 39 40 41 43 45 47 48 49 50 50 50 52 51 46 44 43 41 42 45 46 48 49 48 48 47 46 45 46 46 46 43 40 39 41 42 40 40 40 39 39 37 33 29 27 27 25 20 17 18 18 17 17 16 14 14 16 18 19 20 20
37 39 40 41 42 43 45 46 48 50 51 53 53 53 53 54 51 49 47 43 41 44 46 47 50 51 50 50 49 48 47 47 48 47 44 41 42 43 41 40 42 42 40 38 36 33 29 29 29 25 21 20 19 18 18 18 17 17 17 19 19 20 21
37 40 42 43 44 45 46 47 49 50 52 54 56 57 56 56 56 55 54 50 45 45 46 46 48 52 53 52 52 51 49 48 49 51 50 46 44 43 41 40 43 44 41 38 37 36 31 29 30 29 26 22 19 18 19 19 19 19 19 19 19 20 22
36 39 41 43 45 47 48 49 50 51 52 54 56 59 60 60 60 59 60 58 53 49 49 49 48 50 54 54 54 54 52 51 51 52 53 52 50 48 44 42 44 45 43 39 39 38 34 30 30 30 30 25 19 19 21 21 20 20 20 20 20 22 23
38 39 40 43 45 47 48 50 51 51 53 54 56 58 61 62 63 63 63 63 60 55 54 54 52 51 53 54 55 56 55 53 52 53 53 53 52 51 48 44 44 45 44 42 41 39 35 32 31 30 30 27 22 22 23 22 21 21 22 22 23 24 24
42 42 41 42 44 46 47 49 50 51 52 53 54 56 59 62 64 66 66 66 66 63 59 59 58 55 54 54 55 57 57 56 54 53 53 53 52 52 49 45 44 46 46 44 42 40 36 34 33 32 32 30 27 25 24 24 23 22 22 23 24 26 26
45 45 44 43 44 45 46 47 49 50 51 51 52 53 55 58 62 65 68 68 69 69 65 63 63 61 57 56 56 57 57 57 56 55 54 53 53 53 50 45 44 46 47 45 43 40 38 36 35 34 34 34 32 29 27 27 26 24 23 23 24 25 27
46 47 46 46 45 45 45 45 46 47 48 49 50 51 52 54 57 61 65 68 70 71 70 68 67 66 63 60 59 59 57 56 56 57 57 55 54 56 53 47 45 47 48 46 43 41 39 38 38 37 37 37 35 33 30 30 30 28 26 24 23 25 28
49 48 48 48 47 45 44 44 44 44 45 46 47 48 50 52 54 56 60 63 67 70 73 72 71 71 69 66 64 62 60 58 55 56 57 56 54 57 56 50 47 48 50 48 45 43 42 40 39 40 40 39 37 34 33 33 32 31 29 26 24 25 28
52 51 51 50 49 46 44 43 43 43 43 44 45 46 47 49 51 53 55 58 61 65 71 74 75 75 75 72 68 66 64 62 59 57 57 56 54 56 57 54 50 50 51 51 48 45 44 44 43 42 42 41 39 36 36 36 35 33 31 28 26 26 27
56 54 54 52 50 48 46 44 43 42 42 42 43 44 45 46 48 50 52 54 56 60 65 70 74 77 79 77 73 70 68 67 65 62 59 57 56 57 58 57 55 53 52 51 49 47 47 47 47 46 44 43 41 39 39 40 38 36 34 31 30 29 28
58 57 55 53 51 48 46 45 44 43 42 41 42 42 44 45 47 48 49 51 53 55 60 65 70 75 80 82 79 75 72 70 69 67 64 62 58 56 58 59 58 57 55 53 50 49 49 50 50 49 47 45 43 42 42 43 41 38 37 36 34 33 31
59 58 56 53 51 49 47 44 43 43 42 41 41 41 43 44 45 46 47 49 50 52 56 61 66 70 76 82 84 83 79 75 73 71 69 67 63 57 57 59 59 57 56 56 54 52 52 53 52 50 49 47 47 45 45 45 42 40 40 40 38 35 33
60 58 56 53 51 49 48 45 44 43 42 41 41 41 42 43 44 45 45 46 48 50 53 57 62 67 71 76 81 84 84 82 79 76 74 73 71 65 60 59 59 59 58 59 58 55 55 56 54 52 50 49 49 50 48 46 43 42 42 41 38 35 35
61 58 55 52 50 49 48 46 45 44 42 41 41 41 41 42 43 44 45 45 46 48 51 55 58 62 67 72 75 78 82 84 83 82 79 77 77 75 69 62 59 61 63 63 62 59 57 58 57 54 52 51 51 52 51 48 44 43 43 42 39 36 36
61 57 54 51 49 48 48 47 45 45 44 43 42 41 42 42 43 44 45 45 45 46 48 52 56 59 62 68 72 73 76 80 82 83 83 82 80 80 79 72 65 63 65 67 66 64 61 61 60 57 55 54 53 53 53 51 47 45 45 44 42 39 37
61 57 53 51 49 48 47 46 46 45 44 44 43 43 42 43 43 44 45 46 46 46 47 49 53 57 59 64 69 71 73 76 79 81 82 83 82 81 81 80 75 71 69 69 69 68 65 64 63 60 57 57 55 54 53 52 50 48 47 46 44 42 40
61 57 54 51 50 49 48 47 47 45 45 44 44 43 43 43 43 44 45 46 47 46 46 48 51 55 58 61 65 69 71 73 76 78 79 80 80 79 78 78 77 75 73 71 71 72 69 66 65 63 60 58 57 55 54 54 53 50 49 47 46 45 44
60 57 55 53 52 51 49 49 48 47 46 45 44 44 43 42 42 43 45 46 47 48 47 48 49 52 57 60 62 66 69 70 73 76 77 78 78 77 76 75 73 73 74 72 71 72 72 68 66 65 63 60 58 56 55 56 55 53 50 48 47 47 47
59 56 55 54 53 53 52 51 50 48 46 45 43 43 42 41 41 42 43 45 47 48 49 49 49 50 54 58 61 64 67 69 71 73 75 76 76 75 74 73 71 71 71 71 70 72 71 68 66 66 64 62 59 57 55 56 56 54 53 50 49 49 48
58 57 55 55 55 56 55 54 52 50 47 44 42 41 41 41 40 40 41 43 45 47 49 51 51 50 51 55 59 63 65 67 69 71 73 75 75 75 74 72 71 70 70 70 70 71 71 70 68 67 65 62 60 57 55 56 56 55 54 53 52 52 51
58 57 57 57 57 57 57 55 53 50 47 43 40 39 38 39 39 39 39 40 42 45 48 51 52 52 51 52 56 60 64 66 67 69 72 74 75 74 73 72 71 71 71 71 71 71 72 72 71 68 65 64 63 59 57 57 58 58 57 56 56 55 54
58 58 58 58 58 58 58 56 54 50 46 43 39 37 36 37 37 37 37 37 39 42 45 49 52 54 53 52 54 57 61 65 67 68 70 73 74 73 72 71 72 72 72 72 72 71 72 73 72 70 66 65 65 64 60 59 59 60 59 58 57 56 54
58 58 59 59 59 59 58 56 53 49 46 42 39 36 34 34 35 35 35 35 36 39 42 46 50 53 54 54 54 56 59 63 65 67 70 72 73 73 72 71 72 73 74 74 73 71 71 71 71 70 67 65 65 65 64 62 62 61 60 58 56 55 54
58 58 59 59 59 59 57 54 51 47 44 41 38 36 34 33 32 33 33 33 33 35 39 43 47 50 53 55 55 55 58 61 64 66 69 71 73 73 72 72 73 74 75 76 76 73 71 70 70 70 68 66 66 65 64 64 63 63 61 59 57 56 56
59 59 59 60 59 58 56 52 48 45 42 40 38 36 34 32 31 31 31 31 32 33 35 39 44 48 51 54 56 56 57 60 63 66 69 71 72 72 72 73 74 75 76 77 77 77 74 72 71 72 71 70 68 66 64 64 64 64 62 60 59 59 59
59 59 60 60 59 57 53 49 45 42 41 39 37 36 33 31 30 30 31 31 31 32 33 35 39 44 49 52 55 56 58 59 61 64 68 71 72 72 73 73 75 76 76 75 75 75 76 74 73 73 73 72 70 68 66 66 66 65 63 61 61 62 61
59 60 60 59 58 54 50 46 42 40 39 38 36 35 33 31 29 30 31 32 32 32 32 33 35 39 44 49 53 55 57 59 61 64 67 71 72 73 73 74 75 77 76 74 72 72 74 75 75 75 74 74 73 71 69 68 68 65 62 61 62 64 64
59 60 60 58 55 51 47 43 40 38 38 36 34 32 32 30 29 29 30 31 32 32 32 32 33 35 40 45 50 53 56 59 62 63 66 69 72 73 73 74 75 76 76 74 72 70 71 73 75 77 77 75 75 73 72 71 70 67 64 62 62 64 66
59 60 60 57 53 49 45 41 38 37 36 34 32 30 30 30 29 28 29 30 31 32 32 31 31 33 35 39 45 51 55 59 62 64 65 68 72 74 74 74 76 76 76 75 72 70 70 71 73 76 77 76 75 75 74 73 71 69 66 65 64 66 67
59 59 58 56 51 47 43 39 37 36 35 32 30 29 29 29 29 28 28 29 30 30 31 30 30 31 32 35 40 46 52 56 61 64 65 67 71 74 75 75 76 77 77 77 75 72 71 70 71 72 74 74 74 74 73 73 72 71 69 69 68 68 69
Wind_Direction
234 236 238 236 232 230 231 233 235 238 238 239 241 244 245 244 241 237 235 233 230 230 233 235 236 237 234 232 234 235 233 230 228 227 229 235 240 243 243 243 246 244 238 237 239 246 258 260 259 263 257 242 233 230 229 227 226 227 228 230 231 233 233
239 239 239 240 238 236 236 236 236 237 238 238 240 242 243 244 242 237 234 234 231 230 232 233 233 233 231 229 231 232 229 226 226 225 223 226 233 239 240 238 241 244 240 236 235 238 242 243 243 248 252 251 242 233 230 229 227 227 228 229 232 234 234
248 247 244 243 243 241 240 240 239 238 239 239 238 239 240 241 241 238 235 234 233 231 231 232 231 229 228 227 229 230 226 221 221 222 221 224 230 235 238 237 239 243 240 236 237 237 233 229 230 234 238 244 247 240 235 231 229 229 228 229 231 232 233
257 257 254 250 247 246 244 243 242 241 239 238 236 235 235 237 240 240 237 235 235 233 232 232 229 227 226 227 230 230 223 216 215 218 217 220 226 230 236 237 237 239 238 236 239 242 238 232 228 226 228 234 240 240 238 234 231 229 228 228 229 229 231
265 265 264 260 256 253 250 246 245 244 242 238 234 231 230 234 239 242 241 239 237 234 233 232 229 226 226 228 231 231 224 215 214 219 220 221 223 225 232 235 233 233 233 233 239 246 248 245 238 234 232 232 237 240 239 236 233 228 227 226 225 226 227
271 270 270 268 265 262 258 254 251 248 246 242 237 232 229 231 236 238 239 240 239 236 234 232 229 227 227 227 229 229 225 218 215 217 221 223 223 224 230 232 230 229 229 229 235 245 250 251 252 252 247 239 237 237 235 233 229 225 223 222 221 221 220
275 275 274 273 271 268 265 262 259 255 252 249 244 238 234 235 237 235 233 237 240 238 235 233 230 228 228 227 227 226 224 221 216 216 219 223 223 226 230 231 229 229 227 226 230 236 242 248 254 256 252 243 234 228 227 227 223 220 218 217 218 217 216
273 274 276 276 275 273 270 267 263 260 257 254 252 247 243 241 239 235 232 233 237 239 238 234 230 228 228 228 227 226 225 222 218 218 222 223 223 226 228 228 229 229 226 226 229 231 232 238 244 247 244 237 230 224 224 224 221 219 219 217 217 216 215
275 274 273 274 275 276 275 271 268 264 259 255 253 252 250 247 243 239 235 232 233 236 238 237 233 228 227 229 229 228 228 225 221 221 223 222 221 225 227 226 227 227 226 226 230 231 230 231 233 234 232 233 235 230 222 220 217 216 219 221 218 217 217
283 280 276 273 272 273 274 273 271 268 264 259 255 252 251 250 248 244 241 237 234 232 233 236 236 232 228 228 229 229 230 229 226 223 223 222 223 226 229 226 224 225 224 226 230 233 232 231 231 231 230 233 239 231 219 216 214 213 217 220 221 221 219
288 286 283 279 275 271 270 270 269 268 266 263 259 255 251 249 248 247 245 242 239 234 230 231 235 235 231 229 229 229 230 230 229 226 225 225 226 228 229 228 225 224 222 223 228 232 233 232 233 234 235 236 234 226 222 220 218 216 217 219 222 224 222
294 292 288 285 282 277 273 270 269 267 265 263 261 258 255 251 248 245 244 244 243 240 234 229 230 234 233 230 229 228 228 228 228 227 226 226 227 228 228 227 226 224 221 220 224 228 230 231 232 233 238 240 233 224 222 220 219 220 221 220 221 222 221
302 297 292 288 284 281 278 275 272 269 267 265 263 260 257 254 250 246 243 243 243 243 239 232 229 230 232 231 231 230 228 227 227 226 227 228 227 228 228 227 225 223 220 220 222 224 226 229 231 231 234 238 234 226 221 219 220 225 229 228 225 222 219
306 302 298 293 288 283 280 277 274 272 270 268 266 264 260 256 253 248 244 242 242 243 242 237 231 230 230 230 232 233 231 229 229 228 227 228 227 228 228 227 224 222 220 220 222 223 224 227 230 230 231 234 233 229 223 221 221 224 231 236 233 227 224
309 306 303 299 294 289 284 280 276 273 271 269 267 265 263 259 256 251 246 242 241 242 242 240 235 232 230 229 230 233 234 232 230 228 228 227 227 227 228 228 224 221 219 221 224 224 223 226 229 230 230 231 232 232 228 223 221 221 226 233 234 230 229
312 309 306 303 298 293 289 286 281 277 273 270 267 265 264 262 259 255 249 244 241 241 241 241 237 233 233 232 229 230 232 233 231 228 226 227 227 227 227 226 225 222 220 221 224 223 223 225 228 230 230 229 231 234 233 229 225 223 224 228 230 230 231
315 313 310 306 302 298 295 291 286 282 278 274 270 267 264 262 259 257 253 247 241 239 239 239 237 234 234 234 231 228 229 231 232 230 225 225 227 227 226 224 223 222 222 222 223 221 221 224 227 230 231 229 229 231 233 231 229 228 226 225 227 229 231
317 315 312 309 305 302 299 295 290 286 282 278 274 270 266 262 259 257 254 250 244 239 237 237 237 235 233 233 232 230 228 229 231 231 227 225 226 227 225 224 222 222 222 223 222 220 221 224 225 227 229 230 228 229 231 231 230 229 228 227 227 228 231
318 316 314 310 307 304 300 296 293 289 285 281 276 272 268 264 261 257 254 251 246 241 237 235 235 234 233 232 232 231 229 228 229 230 228 226 226 227 226 225 225 223 224 225 224 222 222 225 227 227 229 230 229 229 232 233 232 230 228 228 228 226 228
318 316 314 311 308 305 301 297 294 291 287 284 279 275 270 267 263 259 255 252 248 243 239 235 234 233 233 232 232 232 231 229 229 229 229 227 227 227 226 226 226 225 226 227 227 226 225 226 228 229 229 230 230 231 233 234 235 234 231 230 229 228 229
318 317 315 312 309 306 303 300 297 294 290 286 282 277 273 269 266 262 257 253 249 245 241 237 234 233 232 232 232 232 231 230 229 229 230 229 228 228 227 226 226 226 226 227 227 227 226 226 228 229 229 229 229 230 232 234 235 235 234 233 233 232 231
319 317 315 313 310 307 305 303 300 297 293 289 285 280 276 271 267 264 260 256 251 246 242 240 236 234 232 232 231 230 230 229 229 229 230 231 231 230 230 229 229 230 230 229 227 226 224 224 227 230 230 230 229 229 230 232 233 234 234 234 235 234 233
318 317 315 313 311 308 306 304 302 299 296 293 288 283 278 273 269 266 262 259 254 249 244 241 238 235 233 232 232 230 228 228 227 228 229 231 232 233 233 232 231 232 233 232 230 227 224 222 225 228 230 231 231 230 229 231 232 231 232 233 235 236 236
319 317 316 314 312 310 308 306 304 301 298 295 290 285 280 275 270 266 263 260 257 252 246 241 239 237 234 232 231 231 229 227 227 227 228 230 232 233 234 233 232 232 233 232 230 229 226 223 224 227 229 231 231 231 231 232 233 232 231 232 234 236 238
319 318 317 316 314 312 311 309 307 304 301 297 293 288 283 277 272 267 262 259 257 253 249 244 239 237 235 233 232 231 230 228 227 226 226 227 229 231 232 233 232 231 231 231 230 229 228 226 225 227 229 230 230 229 230 231 233 233 232 232 234 236 238
320 319 318 317 316 314 313 312 310 308 305 301 296 291 285 279 273 268 263 259 256 253 250 246 241 237 235 234 233 232 231 228 227 226 226 226 227 228 229 230 230 229 229 229 228 227 226 226 226 226 227 228 228 228 228 229 231 233 233 233 235 236 238
320 319 318 318 317 316 316 315 313 311 308 304 299 293 288 281 275 268 263 258 254 251 249 247 243 238 235 234 233 232 231 229 227 225 225 225 226 227 228 227 226 226 226 226 225 223 223 224 224 224 225 225 226 228 228 228 230 232 233 234 236 237 238
320 319 319 319 319 318 317 316 315 313 310 306 301 295 289 283 277 270 264 259 254 250 247 245 243 239 235 233 233 232 231 230 227 225 224 225 225 226 226 225 223 222 222 222 222 220 220 221 223 223 223 224 226 228 229 228 230 231 231 234 237 239 240
321 320 320 320 320 319 319 318 317 314 311 308 302 296 290 285 279 273 266 260 255 251 247 244 242 239 235 232 231 231 231 230 228 225 223 224 224 225 225 224 222 220 219 219 219 219 219 221 223 224 224 224 226 228 229 230 230 230 231 234 237 240 242
321 320 321 321 321 320 320 319 317 315 312 309 304 298 292 287 282 276 270 263 256 251 248 244 241 239 235 232 229 229 230 230 228 226 223 222 223 223 223 222 220 219 218 217 218 219 220 222 223 224 224 225 226 228 229 231 231 232 234 237 237 237 238
321 321 321 321 321 321 321 319 318 315 313 309 305 300 295 290 285 281 275 267 259 253 248 245 242 239 236 232 228 227 228 228 227 226 224 222 222 222 222 221 219 218 217 216 217 218 220 222 222 222 224 225 226 227 229 231 233 235 236 238 236 232 232
321 321 322 322 322 322 321 320 317 315 313 309 305 301 297 294 290 286 281 274 266 257 250 245 242 240 237 233 229 226 226 227 226 225 224 222 221 221 220 220 219 217 216 216 217 218 220 222 223 223 225 226 227 228 229 231 233 235 236 236 234 229 228
321 321 322 323 323 322 321 320 317 315 312 309 306 302 300 297 295 292 287 280 272 263 255 248 243 240 237 234 230 226 224 225 225 224 223 222 221 219 219 218 218 217 216 216 217 220 222 224 226 227 227 228 229 229 229 231 233 234 234 234 233 228 227
321 322 323 323 323 323 321 319 317 314 312 309 305 302 300 298 296 293 290 284 277 269 261 253 246 241 237 234 231 227 223 223 223 223 222 222 221 219 217 217 217 217 216 216 218 221 222 224 226 228 228 228 228 229 229 231 232 233 232 232 231 228 227
322 323 323 324 324 322 320 318 316 314 312 308 304 301 299 297 296 293 290 285 280 274 267 259 251 244 238 234 231 228 223 221 222 221 221 221 220 219 216 216 216 216 215 215 218 220 221 222 224 226 227 227 227 228 229 230 231 231 231 230 229 228 227
323 323 324 324 324 322 320 317 315 314 311 307 302 299 298 297 297 295 292 287 282 277 271 264 256 248 241 235 231 228 224 221 220 220 220 220 220 219 216 215 215 215 214 215 217 219 220 222 224 225 226 227 227 228 229 230 231 231 231 231 230 228 227
323 324 324 324 324 322 319 317 315 314 311 306 301 297 296 295 295 296 295 291 286 279 274 268 260 253 245 238 232 229 225 221 219 219 219 218 219 219 217 214 213 214 214 214 216 217 219 222 224 226 227 227 227 228 230 231 232 232 232 232 233 231 230
324 324 324 324 324 322 319 316 315 315 312 306 300 296 294 293 295 297 298 296 292 285 278 273 266 258 250 242 234 229 226 222 219 217 217 217 217 218 217 215 213 212 213 214 215 217 219 221 224 227 228 229 229 229 230 231 234 235 235 235 236 236 235
Height
10936 10936 10937 10939 10940 10940 10941 10941 10941 10940 10940 10941 10940 10940 10941 10941 10941 10941 10940 10940 10940 10940 10941 10942 10944 10946 10947 10949 10949 10950 10952 10955 10956 10957 10957 10960 10962 10961 10961 10961 10962 10962 10961 10961 10962 10963 10963 10963 10962 10962 10962 10961 10962 10962 10963 10964 10964 10965 10966 10967 10968 10969 10971
10932 10933 10934 10935 10936 10937 10937 10937 10937 10937 10937 10937 10937 10937 10937 10937 10937 10937 10936 10936 10936 10936 10936 10937 10939 10941 10942 10943 10944 10945 10948 10951 10953 10953 10951 10952 10955 10956 10955 10956 10958 10958 10958 10958 10959 10960 10961 10960 10960 10960 10961 10960 10960 10961 10961 10962 10963 10963 10964 10965 10967 10968 10969
10929 10929 10931 10932 10932 10933 10933 10933 10933 10933 10933 10933 10933 10933 10933 10932 10932 10932 10932 10932 10931 10931 10931 10932 10934 10936 10937 10938 10939 10940 10943 10946 10948 10948 10948 10947 10948 10948 10949 10951 10954 10955 10955 10955 10956 10957 10957 10957 10957 10958 10958 10958 10958 10959 10959 10960 10961 10962 10963 10964 10965 10966 10967
10927 10927 10927 10927 10928 10928 10928 10928 10928 10927 10928 10928 10928 10928 10928 10928 10927 10927 10927 10927 10927 10927 10927 10927 10929 10931 10932 10932 10933 10935 10937 10940 10942 10943 10943 10942 10942 10942 10945 10946 10949 10951 10952 10953 10954 10954 10954 10955 10955 10955 10955 10956 10956 10956 10957 10957 10958 10959 10960 10962 10963 10964 10966
10925 10924 10923 10923 10923 10923 10923 10923 10922 10922 10922 10923 10923 10923 10924 10923 10922 10922 10922 10922 10922 10922 10922 10923 10924 10925 10926 10927 10928 10929 10931 10934 10936 10938 10938 10938 10938 10939 10941 10942 10944 10947 10948 10950 10952 10952 10953 10954 10953 10953 10953 10953 10954 10954 10955 10955 10956 10957 10958 10959 10961 10962 10964
10922 10921 10919 10918 10918 10918 10917 10916 10916 10916 10916 10917 10917 10918 10918 10918 10918 10917 10917 10917 10917 10917 10918 10918 10919 10920 10921 10923 10923 10925 10926 10929 10931 10933 10934 10934 10935 10937 10938 10939 10941 10943 10945 10947 10949 10951 10953 10953 10953 10953 10952 10952 10953 10953 10953 10953 10953 10954 10955 10956 10958 10960 10961
10917 10916 10914 10914 10913 10912 10911 10910 10910 10909 10909 10909 10910 10911 10912 10912 10912 10911 10912 10912 10912 10913 10913 10913 10914 10915 10916 10918 10919 10920 10922 10924 10927 10929 10930 10930 10932 10934 10936 10938 10940 10941 10943 10944 10945 10948 10950 10951 10952 10952 10952 10951 10951 10951 10950 10950 10951 10952 10952 10953 10955 10957 10959
10912 10911 10909 10908 10907 10905 10904 10904 10903 10903 10903 10903 10903 10904 10904 10904 10904 10905 10905 10907 10907 10907 10907 10907 10908 10910 10911 10912 10914 10916 10917 10920 10923 10925 10926 10927 10928 10930 10932 10935 10937 10939 10940 10941 10941 10942 10945 10947 10948 10950 10950 10949 10948 10948 10947 10947 10948 10949 10950 10951 10952 10955 10958
10906 10905 10903 10902 10901 10898 10896 10895 10895 10895 10895 10895 10896 10896 10897 10896 10896 10897 10898 10900 10902 10902 10901 10901 10903 10905 10906 10907 10909 10910 10912 10914 10918 10920 10921 10923 10924 10925 10928 10931 10933 10935 10936 10937 10937 10938 10939 10941 10943 10944 10945 10945 10945 10946 10946 10945 10945 10945 10946 10948 10950 10953 10955
10900 10898 10896 10895 10894 10892 10890 10888 10887 10886 10886 10886 10888 10889 10890 10890 10889 10889 10890 10893 10895 10896 10895 10896 10897 10899 10900 10902 10903 10904 10906 10909 10912 10915 10916 10918 10920 10921 10924 10926 10927 10929 10931 10933 10934 10934 10936 10937 10938 10939 10941 10941 10943 10944 10944 10944 10944 10944 10943 10945 10948 10951 10953
10895 10892 10890 10887 10886 10884 10882 10880 10879 10878 10877 10877 10878 10879 10881 10882 10882 10882 10882 10884 10887 10889 10890 10890 10891 10892 10894 10895 10897 10898 10900 10903 10906 10909 10910 10912 10915 10917 10919 10921 10922 10924 10926 10928 10930 10930 10932 10934 10936 10937 10938 10939 10940 10941 10941 10942 10943 10943 10941 10941 10944 10947 10950
10888 10886 10884 10881 10878 10876 10874 10872 10871 10870 10869 10868 10868 10869 10869 10871 10872 10873 10875 10876 10878 10880 10882 10883 10884 10886 10887 10889 10890 10892 10894 10897 10900 10902 10905 10906 10909 10911 10914 10916 10918 10920 10922 10924 10925 10926 10928 10931 10933 10935 10936 10937 10937 10937 10938 10939 10941 10942 10941 10938 10939 10943 10946
10881 10879 10877 10874 10871 10868 10866 10864 10863 10862 10860 10859 10859 10859 10858 10859 10860 10862 10865 10868 10869 10870 10872 10875 10877 10878 10880 10882 10884 10885 10887 10890 10893 10896 10899 10900 10902 10904 10907 10910 10912 10914 10917 10919 10921 10922 10925 10926 10928 10930 10933 10934 10933 10933 10934 10937 10939 10941 10941 10940 10940 10941 10942
10874 10871 10868 10866 10863 10861 10859 10857 10854 10853 10852 10851 10850 10849 10848 10847 10848 10849 10853 10857 10859 10860 10862 10866 10868 10870 10872 10875 10877 10879 10881 10884 10887 10890 10893 10894 10896 10898 10901 10904 10907 10909 10912 10914 10916 10918 10920 10922 10923 10925 10927 10929 10929 10929 10931 10933 10935 10937 10938 10939 10940 10940 10940
10867 10863 10860 10857 10854 10852 10850 10848 10847 10845 10844 10843 10842 10840 10838 10837 10837 10837 10840 10845 10849 10850 10851 10855 10859 10861 10863 10866 10870 10872 10874 10877 10880 10884 10887 10889 10891 10893 10896 10899 10902 10905 10907 10910 10912 10914 10916 10918 10919 10921 10922 10923 10925 10927 10929 10930 10930 10932 10933 10935 10937 10939 10940
10859 10856 10852 10848 10845 10843 10841 10840 10838 10836 10835 10833 10832 10831 10829 10827 10826 10826 10828 10833 10837 10839 10840 10843 10848 10852 10854 10857 10861 10865 10868 10870 10873 10877 10881 10884 10885 10888 10891 10894 10897 10900 10903 10906 10908 10910 10912 10914 10915 10916 10917 10919 10921 10924 10926 10927 10928 10929 10930 10932 10934 10936 10938
10850 10847 10843 10839 10835 10833 10832 10830 10828 10827 10826 10824 10823 10822 10820 10818 10817 10816 10817 10821 10825 10828 10829 10832 10836 10841 10844 10847 10852 10857 10861 10864 10867 10870 10875 10878 10880 10882 10885 10889 10893 10896 10899 10901 10904 10906 10908 10910 10911 10912 10913 10915 10918 10920 10922 10924 10925 10926 10928 10929 10931 10933 10936
10842 10838 10834 10830 10827 10825 10823 10821 10819 10818 10817 10815 10814 10812 10811 10809 10808 10807 10808 10810 10814 10817 10819 10821 10824 10829 10833 10837 10842 10847 10852 10856 10860 10863 10868 10873 10875 10877 10880 10883 10887 10891 10894 10897 10899 10902 10903 10905 10906 10908 10910 10912 10914 10916 10917 10919 10921 10923 10925 10927 10928 10930 10933
10834 10830 10826 10822 10819 10816 10814 10812 10810 10809 10808 10806 10805 10803 10802 10800 10799 10799 10799 10800 10803 10806 10808 10810 10813 10816 10821 10826 10831 10836 10842 10847 10852 10856 10861 10866 10869 10871 10874 10878 10881 10886 10891 10893 10895 10897 10899 10900 10902 10904 10906 10908 10910 10912 10913 10915 10918 10920 10921 10923 10925 10927 10930
10827 10823 10819 10814 10811 10807 10805 10804 10802 10801 10799 10798 10796 10794 10792 10791 10790 10790 10791 10791 10793 10795 10797 10800 10802 10805 10809 10814 10820 10825 10831 10837 10843 10848 10853 10857 10861 10863 10866 10870 10875 10881 10886 10888 10890 10892 10894 10895 10897 10900 10902 10904 10906 10907 10909 10911 10914 10916 10917 10919 10922 10925 10927
10819 10815 10811 10807 10803 10799 10796 10795 10794 10792 10790 10789 10787 10785 10784 10782 10781 10781 10782 10782 10783 10785 10787 10789 10792 10795 10798 10802 10808 10813 10819 10826 10833 10838 10843 10847 10851 10853 10856 10861 10867 10873 10878 10880 10882 10885 10888 10890 10892 10895 10897 10899 10901 10903 10905 10907 10910 10912 10914 10915 10918 10922 10924
10812 10808 10804 10800 10796 10791 10788 10786 10784 10782 10781 10780 10778 10777 10775 10773 10772 10772 10772 10773 10774 10776 10778 10779 10782 10786 10789 10792 10797 10802 10808 10814 10822 10828 10833 10837 10840 10843 10849 10855 10860 10865 10869 10871 10873 10877 10881 10884 10886 10888 10891 10893 10895 10898 10900 10903 10906 10908 10910 10911 10914 10917 10919
10805 10802 10797 10793 10789 10785 10781 10779 10776 10774 10772 10770 10769 10767 10765 10764 10763 10763 10763 10764 10765 10767 10769 10770 10773 10776 10780 10782 10786 10791 10796 10803 10810 10817 10822 10826 10829 10833 10839 10846 10852 10856 10859 10863 10866 10869 10872 10875 10877 10880 10883 10886 10889 10892 10895 10898 10901 10903 10905 10907 10910 10912 10914
10797 10794 10790 10786 10782 10778 10775 10772 10769 10766 10764 10761 10758 10757 10756 10755 10754 10754 10754 10754 10755 10757 10759 10762 10764 10767 10770 10772 10776 10781 10786 10791 10798 10805 10811 10814 10818 10822 10827 10834 10840 10844 10847 10852 10858 10862 10865 10868 10870 10872 10876 10879 10883 10887 10890 10893 10896 10899 10901 10903 10906 10908 10909
10790 10785 10782 10778 10774 10771 10767 10764 10761 10758 10755 10752 10749 10747 10746 10745 10744 10744 10744 10744 10746 10748 10750 10752 10755 10757 10760 10763 10767 10771 10776 10781 10787 10793 10799 10803 10807 10812 10816 10822 10828 10832 10835 10842 10849 10854 10859 10863 10865 10867 10870 10874 10877 10881 10885 10888 10891 10894 10896 10899 10901 10903 10905
10784 10779 10774 10771 10767 10763 10760 10757 10753 10750 10746 10743 10739 10737 10736 10735 10734 10734 10734 10735 10736 10738 10740 10743 10745 10748 10750 10754 10758 10761 10765 10771 10776 10782 10788 10793 10797 10801 10806 10812 10817 10822 10826 10833 10840 10846 10852 10856 10859 10862 10865 10868 10872 10875 10879 10883 10886 10889 10892 10894 10897 10899 10901
10778 10773 10769 10765 10760 10755 10752 10749 10745 10742 10738 10735 10731 10728 10726 10725 10724 10724 10724 10725 10727 10729 10731 10733 10736 10739 10742 10745 10749 10752 10755 10761 10767 10773 10778 10784 10788 10792 10797 10803 10808 10813 10818 10825 10832 10838 10843 10848 10851 10855 10858 10863 10867 10870 10874 10877 10880 10884 10887 10890 10893 10895 10896
10771 10766 10762 10758 10753 10749 10744 10741 10737 10734 10730 10727 10724 10720 10717 10715 10715 10715 10715 10716 10717 10719 10721 10723 10726 10730 10733 10737 10740 10743 10747 10751 10757 10764 10770 10775 10779 10784 10789 10794 10799 10805 10811 10818 10824 10830 10835 10839 10843 10847 10852 10857 10861 10865 10868 10871 10874 10878 10882 10886 10888 10890 10891
10765 10760 10755 10751 10747 10742 10737 10733 10729 10725 10722 10719 10716 10713 10710 10707 10706 10706 10707 10707 10708 10710 10712 10713 10716 10719 10724 10728 10732 10735 10738 10742 10748 10755 10761 10766 10770 10775 10780 10786 10792 10798 10804 10810 10816 10822 10827 10830 10835 10840 10846 10850 10854 10858 10861 10864 10868 10872 10876 10880 10882 10884 10886
10759 10754 10750 10745 10741 10736 10731 10726 10722 10718 10715 10712 10709 10706 10703 10700 10698 10698 10699 10700 10700 10701 10703 10704 10706 10710 10714 10719 10723 10726 10730 10734 10740 10746 10752 10757 10763 10768 10773 10779 10785 10791 10797 10803 10809 10814 10819 10823 10828 10833 10838 10843 10846 10850 10854 10857 10860 10864 10868 10872 10876 10878 10880
10753 10748 10744 10739 10734 10729 10724 10719 10715 10711 10707 10705 10702 10700 10697 10694 10692 10691 10692 10692 10693 10694 10695 10696 10698 10701 10705 10710 10714 10718 10721 10725 10731 10737 10743 10749 10755 10761 10766 10772 10777 10784 10791 10797 10803 10808 10813 10817 10822 10827 10831 10835 10838 10842 10846 10850 10853 10857 10860 10864 10868 10871 10874
10747 10742 10738 10733 10728 10722 10718 10713 10709 10705 10701 10698 10696 10693 10691 10689 10687 10686 10685 10685 10686 10686 10687 10688 10690 10692 10696 10701 10705 10710 10713 10717 10723 10728 10734 10740 10747 10754 10759 10765 10770 10777 10784 10791 10797 10802 10806 10811 10816 10821 10824 10827 10830 10834 10840 10843 10846 10849 10853 10857 10860 10864 10867
10741 10737 10732 10727 10722 10716 10711 10707 10703 10699 10695 10692 10689 10687 10686 10684 10682 10681 10680 10679 10679 10679 10680 10681 10682 10685 10688 10692 10697 10702 10706 10710 10715 10720 10725 10731 10738 10746 10752 10758 10764 10770 10777 10784 10790 10795 10800 10805 10810 10813 10816 10820 10824 10829 10834 10836 10838 10841 10846 10849 10853 10857 10861
10736 10731 10726 10721 10716 10711 10706 10701 10697 10694 10690 10687 10684 10682 10681 10679 10678 10676 10675 10674 10673 10672 10673 10674 10675 10677 10680 10683 10688 10693 10698 10703 10707 10712 10717 10722 10729 10737 10745 10751 10756 10762 10770 10778 10785 10789 10794 10798 10802 10805 10809 10813 10818 10823 10827 10828 10829 10833 10838 10842 10846 10851 10854
10731 10726 10721 10716 10710 10705 10700 10696 10692 10689 10686 10683 10680 10677 10676 10675 10674 10672 10670 10669 10667 10667 10666 10667 10668 10670 10673 10676 10680 10685 10690 10695 10700 10704 10709 10714 10721 10729 10736 10743 10749 10756 10764 10772 10777 10781 10785 10789 10793 10796 10800 10805 10810 10815 10818 10819 10821 10826 10831 10835 10839 10844 10848
10726 10720 10715 10711 10705 10700 10695 10692 10688 10685 10681 10678 10676 10674 10672 10670 10669 10668 10666 10664 10663 10661 10661 10661 10662 10663 10666 10669 10673 10677 10682 10687 10692 10696 10702 10707 10714 10721 10728 10735 10742 10750 10758 10764 10769 10772 10777 10780 10784 10787 10792 10797 10802 10806 10809 10812 10816 10821 10825 10829 10833 10837 10841
10722 10715 10710 10705 10700 10695 10690 10687 10684 10681 10677 10674 10672 10670 10668 10666 10665 10664 10662 10660 10658 10657 10656 10656 10657 10658 10660 10662 10666 10670 10674 10679 10684 10689 10695 10701 10707 10713 10721 10728 10736 10744 10752 10757 10761 10764 10768 10772 10776 10781 10786 10791 10795 10799 10803 10807 10812 10816 10820 10823 10826 10830 10833
10717 10711 10705 10700 10695 10691 10686 10682 10679 10676 10673 10670 10668 10666 10664 10663 10662 10660 10659 10657 10655 10653 10652 10651 10652 10653 10654 10656 10659 10663 10666 10671 10677 10682 10688 10694 10700 10706 10713 10721 10729 10737 10744 10749 10753 10756 10760 10765 10770 10775 10781 10785 10789 10793 10797 10802 10806 10810 10813 10816 10819 10822 10826